New York JFK, NY

7:48 AM EDT on May 26, 2017 (GMT -0400)
Kennedy International

Weather History for KJFK - May, 2013

Change the Weather History Date:

Saturday, May 11, 2013

  Actual Average Record
Temperature  
Mean Temperature 62 °F 59 °F  
Max Temperature 65 °F 67 °F 85 °F (1970)
Min Temperature 59 °F 51 °F 40 °F (1966)
Degree Days  
Heating Degree Days 3 6  
Month to date heating degree days 83 86  
Since 1 July heating degree days 4603 4737  
Cooling Degree Days 0 1  
Month to date cooling degree days 0 2  
Year to date cooling degree days 0 5  
Growing Degree Days 10 (Base 50)    
Moisture  
Dew Point 58 °F    
Average Humidity 91    
Maximum Humidity 97    
Minimum Humidity 84    
Precipitation  
Precipitation 0.39 in 0.12 in 1.09 in (1998)
Month to date precipitation 2.68 1.28  
Year to date precipitation 11.90 14.68  
Snow  
Snow 0.00 in 0.00 in - ()
Month to date snowfall 0.0 0.0  
Since 1 July snowfall 17.6 23.8  
Snow Depth 0.00 in    
Sea Level Pressure  
Sea Level Pressure 29.81 in    
Wind  
Wind Speed 14 mph (South)    
Max Wind Speed 26 mph    
Max Gust Speed 26 mph    
Visibility 6 miles    
Events Rain , Thunderstorm    
T = Trace of Precipitation, MM = Missing Value Source: NWS Daily Summary

Daily Weather History Graph

Daily Weather History Graph

Search for Another Location

Airport or City:

Trip Planner

Search our weather history database for the weather conditions in past years. The results will help you decide how hot, cold, wet, or windy it might be!

Date:

Astronomy

May. 11, 2013 Rise Set
Actual Time 5:42 AM EDT 8:01 PM EDT
Civil Twilight 5:11 AM EDT 8:32 PM EDT
Nautical Twilight 4:33 AM EDT 9:10 PM EDT
Astronomical Twilight 3:51 AM EDT 9:52 PM EDT
Moon 6:47 AM EDT (5/11) 9:39 PM EDT (5/11)
Length of Visible Light 15h 20m
Length of Day
14h 19m
Waxing Crescent, 3% of the Moon is Illuminated
May 11
Waxing Crescent
May 18
First Quarter
May 25
Full
May 31
Last Quarter
Jun 8
New

Hourly Weather History & Observations

Time (EDT) Temp. Dew Point Humidity Pressure Visibility Wind Dir Wind Speed Gust Speed Precip Events Conditions
12:51 AM 60.1 °F 55.9 °F 86% 29.90 in 9.0 mi SSW 4.6 mph - N/A Rain Light Rain
1:14 AM 60.8 °F 57.2 °F 88% 29.89 in 9.0 mi Calm Calm - 0.00 in Rain , Thunderstorm Light Thunderstorms and Rain
1:44 AM 60.8 °F 55.4 °F 82% 29.90 in 10.0 mi South 6.9 mph - 0.00 in   Overcast
1:51 AM 60.1 °F 55.9 °F 86% 29.90 in 10.0 mi South 6.9 mph - 0.00 in Rain Light Rain
2:51 AM 62.1 °F 59.0 °F 90% 29.88 in 5.0 mi South 6.9 mph - 0.13 in Rain Light Rain
3:51 AM 62.1 °F 60.1 °F 93% 29.87 in 5.0 mi South 6.9 mph - 0.03 in   Overcast
4:51 AM 61.0 °F 59.0 °F 93% 29.87 in 5.0 mi South 12.7 mph - 0.00 in Rain Light Rain
5:51 AM 61.0 °F 59.0 °F 93% 29.84 in 5.0 mi South 11.5 mph - 0.01 in Rain Light Rain
6:51 AM 60.1 °F 57.9 °F 93% 29.84 in 10.0 mi South 16.1 mph - 0.01 in   Overcast
7:51 AM 60.1 °F 57.9 °F 93% 29.85 in 10.0 mi South 18.4 mph - 0.00 in Rain Light Rain
8:51 AM 61.0 °F 57.9 °F 90% 29.85 in 5.0 mi SSW 13.8 mph - 0.02 in Rain Light Rain
9:51 AM 61.0 °F 57.9 °F 90% 29.83 in 9.0 mi SSW 19.6 mph - 0.03 in   Overcast
10:15 AM 59.0 °F 57.2 °F 94% 29.84 in 1.5 mi South 24.2 mph - 0.02 in Rain Rain
10:36 AM 60.8 °F 57.2 °F 88% 29.83 in 2.0 mi South 24.2 mph - 0.02 in   Overcast
10:51 AM 59.0 °F 57.0 °F 93% 29.82 in 2.0 mi South 25.3 mph - 0.03 in Rain Light Rain
11:46 AM 60.8 °F 57.2 °F 88% 29.82 in 3.0 mi South 26.5 mph - 0.00 in   Overcast
11:51 AM 61.0 °F 57.9 °F 90% 29.82 in 3.0 mi South 26.5 mph - 0.00 in   Overcast
12:29 PM 60.8 °F 57.2 °F 88% 29.82 in 3.0 mi South 21.9 mph - N/A   Overcast
12:51 PM 61.0 °F 57.9 °F 90% 29.81 in 3.0 mi South 23.0 mph - N/A   Overcast
1:28 PM 62.6 °F 59.0 °F 88% 29.79 in 3.0 mi South 19.6 mph - 0.00 in Rain Light Rain
1:51 PM 62.1 °F 57.9 °F 86% 29.78 in 5.0 mi South 17.3 mph - 0.00 in Rain Light Rain
2:51 PM 62.1 °F 57.9 °F 86% 29.76 in 6.0 mi South 16.1 mph - 0.00 in   Mostly Cloudy
3:51 PM 60.1 °F 55.9 °F 86% 29.72 in 7.0 mi South 20.7 mph - N/A   Overcast
4:05 PM 60.8 °F 55.4 °F 82% 29.73 in 6.0 mi South 25.3 mph - 0.00 in Rain Light Rain
4:19 PM 59.0 °F 55.4 °F 88% 29.80 in 5.0 mi South 24.2 mph - 0.00 in Rain , Thunderstorm Light Thunderstorms and Rain
4:23 PM 59.0 °F 55.4 °F 88% 29.78 in 1.5 mi South 24.2 mph - 0.00 in Rain , Thunderstorm Heavy Thunderstorms and Rain
4:39 PM 60.8 °F 57.2 °F 88% 29.76 in 3.0 mi SSW 10.4 mph - 0.03 in Rain , Thunderstorm Light Thunderstorms and Rain
4:51 PM 62.1 °F 59.0 °F 90% 29.76 in 4.0 mi SSW 12.7 mph - 0.07 in Rain Light Rain
5:51 PM 61.0 °F 59.0 °F 93% 29.75 in 6.0 mi SSE 12.7 mph - 0.06 in   Mostly Cloudy
6:51 PM 61.0 °F 59.0 °F 93% 29.75 in 6.0 mi South 11.5 mph - N/A   Overcast
7:51 PM 61.0 °F 59.0 °F 93% 29.74 in 8.0 mi SE 4.6 mph - N/A   Overcast
8:51 PM 60.1 °F 57.9 °F 93% 29.75 in 6.0 mi South 9.2 mph - N/A   Overcast
9:51 PM 60.1 °F 57.9 °F 93% 29.74 in 6.0 mi South 10.4 mph - 0.00 in   Mostly Cloudy
10:51 PM 60.1 °F 57.9 °F 93% 29.73 in 6.0 mi SSW 6.9 mph - N/A   Mostly Cloudy
11:51 PM 61.0 °F 59.0 °F 93% 29.72 in 6.0 mi WSW 6.9 mph - N/A   Mostly Cloudy